This is the latest recevied weather packets stored in our database for station/object SP9TWP-3. If no packets are shown the sender has not sent any weather packets the latest 10 day(s).
| Time | Temp. | Humidity | Pressure | Rain* | Wind** | Luminosity | Snow |
|---|---|---|---|---|---|---|---|
| 1777806989 | 25° C | 23% | 1016.8 hPa | - | - | - | - |
| 1777806089 | 25° C | 24% | 1017.1 hPa | - | - | - | - |
| 1777805189 | 25.56° C | 24% | 1017.2 hPa | - | - | - | - |
| 1777804289 | 24.44° C | 25% | 1017.3 hPa | - | - | - | - |
| 1777803468 | 23.89° C | 26% | 1017.5 hPa | - | - | - | - |
| 1777803389 | 23.89° C | 26% | 1017.5 hPa | - | - | - | - |
| 1777802489 | 23.33° C | 28% | 1017.6 hPa | - | - | - | - |
| 1777801588 | 23.33° C | 28% | 1017.7 hPa | - | - | - | - |
| 1777800688 | 23.33° C | 28% | 1017.9 hPa | - | - | - | - |
| 1777799788 | 22.78° C | 29% | 1018 hPa | - | - | - | - |
| 1777798888 | 22.22° C | 30% | 1018.2 hPa | - | - | - | - |
| 1777798026 | 22.22° C | 30% | 1018.4 hPa | - | - | - | - |
| 1777797988 | 22.22° C | 30% | 1018.4 hPa | - | - | - | - |
| 1777797088 | 21.67° C | 30% | 1018.4 hPa | - | - | - | - |
| 1777796187 | 21.67° C | 31% | 1018.4 hPa | - | - | - | - |
| 1777795287 | 21.67° C | 31% | 1018.4 hPa | - | - | - | - |
| 1777794387 | 20.56° C | 33% | 1018.4 hPa | - | - | - | - |
| 1777793487 | 20.56° C | 33% | 1018.4 hPa | - | - | - | - |
| 1777792587 | 20° C | 35% | 1018.3 hPa | - | - | - | - |
| 1777791686 | 19.44° C | 37% | 1018.3 hPa | - | - | - | - |
| 1777790786 | 18.89° C | 36% | 1018.4 hPa | - | - | - | - |
| 1777789886 | 18.89° C | 37% | 1018.4 hPa | - | - | - | - |
| 1777788986 | 17.78° C | 39% | 1018.3 hPa | - | - | - | - |
| 1777788086 | 16.67° C | 41% | 1018.3 hPa | - | - | - | - |
| 1777787186 | 16.11° C | 42% | 1018.4 hPa | - | - | - | - |
* Rain since midnight (hover to see other rain measurements)
** Current wind speed in m/s (hover to see current wind gust speed)